DW0269 Weather Reports


Display with metric or nautical units.
time (UTC)temp
F
wind
direction
speed
MPH
gust
MPH
rain 1hr
in
rain 24hr
in
rain mn
in
humidity
%
barometer
mb
20260506135101 62 16 2.0 11.0 0.00 0.00 0.00 94 948.3
20260506134600 62 15 2.0 11.0 0.00 0.00 0.00 94 948.2
20260506134059 62 24 1.0 11.0 0.00 0.00 0.00 95 948.4
20260506133558 62 38 2.0 11.0 0.00 0.00 0.00 95 948.3
20260506133056 61 27 2.0 11.0 0.00 0.00 0.00 95 948.5
20260506132555 61 30 2.0 11.0 0.00 0.00 0.00 95 948.3
20260506131538 61 13 2.0 11.0 0.00 0.00 0.00 94 948.8
20260506130521 61 2 1.0 11.0 0.00 0.00 0.00 94 948.4
20260506130020 61 0 0.0 11.0 0.00 0.00 0.00 95 948.8
20260506125519 61 0 0.0 11.0 0.00 0.00 0.00 95 948.7
20260506125018 61 0 1.0 11.0 0.00 0.00 0.00 94 948.8
20260506124001 61 5 1.0 11.0 0.00 0.00 0.00 94 948.4
20260506123500 61 30 1.0 11.0 0.00 0.00 0.00 94 948.6
20260506122959 61 30 0.0 11.0 0.00 0.00 0.00 94 948.7
20260506122458 61 30 0.0 11.0 0.00 0.00 0.00 94 948.6
20260506121957 61 30 0.0 11.0 0.00 0.00 0.00 94 948.6
20260506121456 61 30 0.0 11.0 0.00 0.00 0.00 94 948.5
20260506120955 61 30 0.0 11.0 0.00 0.00 0.00 94 948.5
20260506120454 62 30 0.0 11.0 0.00 0.00 0.00 94 948.8
20260506115953 62 31 1.0 11.0 0.00 0.00 0.00 94 948.8
20260506114935 62 24 0.0 11.0 0.00 0.00 0.00 95 948.8
20260506114434 61 28 1.0 11.0 0.00 0.00 0.00 94 948.7
20260506113933 61 35 0.0 11.0 0.00 0.00 0.00 94 948.8
20260506113432 61 35 0.0 11.0 0.00 0.00 0.00 94 949.1
20260506112931 62 43 0.0 11.0 0.00 0.00 0.00 94 949.3
20260506112430 62 38 1.0 11.0 0.00 0.00 0.00 94 949.0
20260506111929 62 42 1.0 11.0 0.00 0.00 0.00 95 949.3
20260506111427 62 33 1.0 11.0 0.00 0.00 0.00 95 949.2
20260506110410 62 296 0.0 11.0 0.00 0.00 0.00 95 949.7
20260506105909 62 296 0.0 11.0 0.00 0.00 0.00 96 949.7
20260506105408 62 296 0.0 11.0 0.00 0.00 0.00 96 950.1
20260506104907 62 296 0.0 11.0 0.00 0.00 0.00 96 949.5
20260506104406 62 296 0.0 11.0 0.00 0.00 0.00 96 949.9
20260506103349 63 296 0.0 11.0 0.00 0.00 0.00 97 950.0
20260506102847 63 296 0.0 11.0 0.00 0.00 0.00 97 950.0
20260506102346 64 296 0.0 11.0 0.00 0.00 0.00 97 950.2
20260506101845 65 296 0.0 11.0 0.00 0.00 0.00 98 950.0
20260506101344 66 296 0.0 11.0 0.00 0.00 0.00 98 950.2
20260506095811 66 285 4.0 11.0 0.00 0.00 0.00 98 950.7
20260506095310 67 281 3.0 11.0 0.00 0.00 0.00 98 950.6
20260506094809 67 255 3.0 11.0 0.00 0.00 0.00 98 950.7
20260506094307 67 268 3.0 11.0 0.00 0.00 0.00 98 950.7
20260506093806 67 230 0.0 11.0 0.00 0.00 0.00 98 950.7
20260506093305 67 233 0.0 11.0 0.00 0.00 0.00 98 950.6
20260506092804 66 237 0.0 11.0 0.00 0.00 0.00 98 950.6
20260506092305 66 268 0.0 11.0 0.00 0.00 0.00 97 950.6
20260506091801 66 312 0.0 11.0 0.00 0.00 0.00 97 950.7
20260506090743 65 32 0.0 11.0 0.00 0.00 0.00 97 950.5
20260506090242 65 278 0.0 11.0 0.00 0.00 0.00 97 950.6
20260506085741 65 278 0.0 11.0 0.00 0.00 0.00 97 950.7
20260506085240 65 278 0.0 11.0 0.00 0.00 0.00 97 950.7
20260506084739 64 278 0.0 11.0 0.00 0.00 0.00 97 950.6
20260506084237 64 278 0.0 11.0 0.00 0.00 0.00 97 950.6
20260506083736 64 278 0.0 11.0 0.00 0.00 0.00 97 950.8
20260506083235 63 278 0.0 11.0 0.00 0.00 0.00 96 950.6
20260506082734 63 278 0.0 11.0 0.00 0.00 0.00 96 950.5
20260506082233 63 278 0.0 11.0 0.00 0.00 0.00 96 950.6
20260506081732 63 278 0.0 11.0 0.00 0.00 0.00 95 950.5
20260506081231 64 278 0.0 11.0 0.00 0.00 0.00 96 950.4
20260506080730 64 278 0.0 11.0 0.00 0.00 0.00 95 950.1
20260506080229 64 278 0.0 11.0 0.00 0.00 0.00 95 950.5
20260506073138 66 278 0.0 11.0 0.00 0.00 0.00 96 950.1
20260506072636 66 278 0.0 11.0 0.00 0.00 0.00 97 950.4
20260506072135 66 278 0.0 11.0 0.00 0.00 0.00 97 950.4
20260506071634 67 278 0.0 11.0 0.00 0.00 0.00 97 950.6
20260506071133 67 278 1.0 11.0 0.00 0.00 0.00 97 950.3
20260506070116 67 282 0.0 11.0 0.00 0.00 0.00 97 950.2
20260506061521 67 284 0.0 11.0 0.00 0.00 0.00 95 949.9
20260506061020 67 284 0.0 11.0 0.00 0.00 0.00 95 950.0
20260506060518 68 284 0.0 11.0 0.00 0.00 0.00 95 949.6
20260506050420 70 271 1.0 11.0 0.00 0.00 0.00 88 949.4
20260506044917 70 268 0.0 11.0 0.00 0.00 0.00 86 949.1
20260506044416 70 229 1.0 11.0 0.00 0.00 0.00 85 948.9
20260506042842 70 257 2.0 11.0 0.00 0.00 0.00 85 948.9
20260506042341 71 230 2.0 11.0 0.00 0.00 0.00 85 948.9
20260506041840 71 260 1.0 11.0 0.00 0.00 0.00 85 948.8
20260506035750 71 234 2.0 11.0 0.00 0.00 0.00 83 948.1
20260506034733 71 204 2.0 11.0 0.00 0.00 0.00 83 948.4
20260506033716 71 270 1.0 11.0 0.00 0.00 0.00 82 948.6
20260506033214 71 235 2.0 11.0 0.00 0.00 0.00 82 948.4
20260506032713 71 252 1.0 11.0 0.00 0.00 0.00 83 948.2
20260506032212 71 258 1.0 11.0 0.00 0.00 0.00 83 948.4
20260506031155 71 263 2.0 11.0 0.00 0.00 0.00 83 948.1
20260506030654 71 257 3.0 11.0 0.00 0.00 0.00 81 948.0
20260506030153 72 298 2.0 11.0 0.00 0.00 0.00 81 948.3
20260506025652 72 260 5.0 11.0 0.00 0.00 0.00 80 947.9
20260506025151 72 264 2.0 11.0 0.00 0.00 0.00 80 948.3
20260506024650 72 283 3.0 11.0 0.00 0.00 0.00 80 948.3
20260506023633 73 272 2.0 11.0 0.00 0.00 0.00 78 948.1
20260506023132 73 259 3.0 11.0 0.00 0.00 0.00 78 948.1
20260506022631 73 261 3.0 11.0 0.00 0.00 0.00 77 948.2
20260506022131 73 272 3.0 11.0 0.00 0.00 0.00 77 948.1
20260506021629 73 262 3.0 11.0 0.00 0.00 0.00 77 948.0
20260506021127 74 269 3.0 11.0 0.00 0.00 0.00 75 948.3
20260506020626 74 246 3.0 11.0 0.00 0.00 0.00 76 948.3
20260506020126 74 290 3.0 11.0 0.00 0.00 0.00 75 948.4
20260506015625 75 259 4.0 11.0 0.00 0.00 0.00 75 948.1
20260506014607 75 263 4.0 11.0 0.00 0.00 0.00 75 948.3
20260506014107 74 268 3.0 11.0 0.00 0.00 0.00 76 948.4
20260506013605 75 268 3.0 11.0 0.00 0.00 0.00 73 948.4
20260506013105 75 274 2.0 11.0 0.00 0.00 0.00 75 948.3
20260506012048 75 218 3.0 11.0 0.00 0.00 0.00 73 948.5
20260506011546 75 271 4.0 11.0 0.00 0.00 0.00 77 948.2
20260506011046 75 226 3.0 11.0 0.00 0.00 0.00 78 948.5
20260506010545 75 241 6.0 12.0 0.00 0.00 0.00 75 948.4
20260506010044 75 259 4.0 12.0 0.00 0.00 0.00 78 948.4
20260506005026 74 227 3.0 12.0 0.00 0.00 0.00 79 948.5
20260506004526 75 256 6.0 12.0 0.00 0.00 0.00 77 948.7
20260506004024 75 259 4.0 12.0 0.00 0.00 0.00 78 949.0
20260506003524 75 248 7.0 13.0 0.00 0.00 0.00 76 948.7
20260506003022 76 270 7.0 13.0 0.00 0.00 0.00 74 948.8
20260506002521 76 268 5.0 12.0 0.00 0.00 0.00 75 949.0
20260506002020 76 241 5.0 12.0 0.00 0.00 0.00 74 948.9
20260506001520 76 260 6.0 12.0 0.00 0.00 0.00 75 948.9
20260506000502 76 260 4.0 14.0 0.00 0.00 0.00 74 948.7
20260506000002 76 245 6.0 14.0 0.00 0.00 0.00 75 948.7
20260505235501 76 252 3.0 11.0 0.00 0.00 0.00 77 949.2
20260505234959 75 258 5.0 12.0 0.00 0.00 0.00 77 948.9
20260505233942 76 270 5.0 12.0 0.00 0.00 0.00 77 949.2
20260505233442 76 214 4.0 12.0 0.00 0.00 0.00 76 949.2
20260505232425 76 256 3.0 11.0 0.00 0.00 0.00 76 949.3
20260505231923 76 260 4.0 12.0 0.00 0.00 0.00 76 949.5
20260505231422 75 270 8.0 13.0 0.00 0.00 0.00 73 949.4
20260505230921 75 258 5.0 13.0 0.00 0.00 0.00 74 949.6
20260505230420 76 240 6.0 12.0 0.00 0.00 0.00 73 949.4
20260505225919 75 263 4.0 14.0 0.00 0.00 0.00 76 949.6
20260505225418 75 226 4.0 14.0 0.00 0.00 0.00 77 949.6
20260505224917 75 251 5.0 12.0 0.00 0.00 0.00 77 950.0
20260505224416 75 270 5.0 12.0 0.00 0.00 0.00 78 949.9
20260505223915 75 244 6.0 12.0 0.00 0.00 0.00 77 949.7
20260505223414 75 246 6.0 12.0 0.00 0.00 0.00 77 949.9
20260505222913 76 216 6.0 12.0 0.00 0.00 0.00 74 949.8
20260505221856 76 274 6.0 12.0 0.00 0.00 0.00 77 950.0
20260505221355 76 266 5.0 12.0 0.00 0.00 0.00 77 950.0
20260505220337 76 240 7.0 14.0 0.00 0.00 0.00 77 950.0
20260505215320 75 264 7.0 11.0 0.00 0.00 0.00 77 950.5
20260505214819 75 265 5.0 11.0 0.00 0.00 0.00 75 950.1
20260505214318 75 261 5.0 12.0 0.00 0.00 0.00 77 950.2
20260505213817 75 274 7.0 12.0 0.00 0.00 0.00 75 950.5
20260505212800 75 278 4.0 11.0 0.00 0.00 0.00 76 950.5
20260505212259 74 241 5.0 11.0 0.00 0.00 0.00 79 950.4
20260505211758 74 261 5.0 11.0 0.00 0.00 0.00 78 950.4
20260505211257 75 250 6.0 11.0 0.00 0.00 0.00 76 950.4
20260505210756 75 267 1.0 13.0 0.00 0.00 0.00 75 950.5
20260505210255 75 259 2.0 13.0 0.00 0.00 0.00 81 950.7
20260505205754 75 229 6.0 13.0 0.00 0.00 0.00 76 950.6
20260505205253 74 301 2.0 13.0 0.00 0.00 0.00 78 950.5
20260505204752 74 229 5.0 13.0 0.00 0.00 0.00 78 950.9
20260505204251 74 213 2.0 13.0 0.00 0.00 0.00 79 950.9
20260505203234 74 225 3.0 13.0 0.00 0.00 0.00 74 951.0
20260505202733 75 171 3.0 13.0 0.00 0.00 0.00 75 950.6
20260505202232 74 247 3.0 13.0 0.00 0.00 0.00 77 950.7
20260505201731 75 210 2.0 13.0 0.00 0.00 0.00 77 950.8
20260505201230 74 239 5.0 13.0 0.00 0.00 0.00 72 951.1
20260505200729 74 270 0.0 13.0 0.00 0.00 0.00 73 951.2
20260505200228 75 195 5.0 13.0 0.00 0.00 0.00 73 951.0
20260505195727 74 152 1.0 13.0 0.00 0.00 0.00 77 951.2
20260505195226 73 214 3.0 13.0 0.00 0.00 0.00 75 951.0
20260505194725 73 267 3.0 13.0 0.00 0.00 0.00 77 951.3
20260505194223 73 195 3.0 13.0 0.00 0.00 0.00 75 950.9
20260505193722 73 257 4.0 13.0 0.00 0.00 0.00 77 951.1
20260505193221 72 265 2.0 13.0 0.00 0.00 0.00 79 951.3
20260505192720 72 286 2.0 13.0 0.00 0.00 0.00 80 951.0
20260505192219 72 248 3.0 13.0 0.00 0.00 0.00 79 951.1
20260505191717 72 233 3.0 13.0 0.00 0.00 0.00 79 951.1
20260505191216 72 243 1.0 13.0 0.00 0.00 0.00 80 951.3
20260505190715 71 288 1.0 13.0 0.00 0.00 0.00 82 951.2
20260505190214 71 248 1.0 13.0 0.00 0.00 0.00 80 950.9
20260505185713 71 261 2.0 13.0 0.00 0.00 0.00 82 951.4
20260505185212 71 276 0.0 13.0 0.00 0.00 0.00 82 950.9
20260505184711 71 242 1.0 13.0 0.00 0.00 0.00 82 951.0
20260505184210 71 245 0.0 13.0 0.00 0.00 0.00 84 951.0
20260505183709 70 263 2.0 13.0 0.00 0.00 0.00 83 951.2
20260505183208 70 271 1.0 13.0 0.00 0.00 0.00 83 951.1
20260505182707 70 292 2.0 13.0 0.00 0.00 0.00 82 951.1
20260505182206 70 270 2.0 13.0 0.00 0.00 0.00 81 951.0
20260505181705 70 276 0.0 13.0 0.00 0.00 0.00 82 951.1
20260505181204 70 276 0.0 13.0 0.00 0.00 0.00 82 950.9
20260505180703 70 252 0.0 13.0 0.00 0.00 0.00 81 950.9
20260505180202 70 221 0.0 13.0 0.00 0.00 0.00 82 951.0
20260505175701 70 230 0.0 13.0 0.00 0.00 0.00 82 950.8
20260505175200 70 346 0.0 13.0 0.00 0.00 0.00 84 951.2
20260505174659 69 346 0.0 13.0 0.00 0.00 0.00 87 950.9
20260505174158 68 346 0.0 13.0 0.00 0.00 0.00 87 950.6
20260505173657 68 346 0.0 13.0 0.00 0.00 0.00 88 950.8
20260505173156 67 346 0.0 13.0 0.00 0.00 0.00 90 950.7
20260505172655 67 346 0.0 13.0 0.00 0.00 0.00 91 950.5
20260505172154 67 8 0.0 13.0 0.00 0.00 0.00 92 949.9
20260505171136 66 11 0.0 13.0 0.00 0.00 0.00 95 949.8
20260505170635 65 11 0.0 13.0 0.00 0.00 0.00 95 949.5
20260505170134 64 11 0.0 13.0 0.00 0.00 0.00 95 949.8
20260505165633 64 11 0.0 13.0 0.00 0.00 0.00 96 949.5
20260505165132 63 11 0.0 13.0 0.00 0.00 0.00 96 949.8
20260505164631 63 11 0.0 13.0 0.00 0.00 0.00 96 949.6
20260505163614 62 11 0.0 13.0 0.00 0.00 0.00 96 949.3
20260505163113 61 11 0.0 13.0 0.00 0.00 0.00 96 949.0
20260505162612 61 11 0.0 13.0 0.00 0.00 0.00 96 949.2
20260505162110 61 11 0.0 13.0 0.00 0.00 0.00 96 949.1
20260505161609 61 2 0.0 13.0 0.00 0.00 0.00 96 949.2
20260505161108 61 13 0.0 13.0 0.00 0.00 0.00 96 949.1
20260505153044 62 32 0.0 13.0 0.00 0.00 0.00 97 949.2
20260505151511 62 32 0.0 13.0 0.00 0.00 0.00 97 949.1
20260505151010 62 32 0.0 13.0 0.00 0.00 0.00 97 948.8
20260505150509 62 32 0.0 13.0 0.00 0.00 0.00 97 949.1
20260505140442 62 32 0.0 13.0 0.00 0.00 0.00 96 948.6